User: anonymous   Login
Location: Grust
(42.8833°N, 0.0333°W)
Time: 06:11:19
(UTC+00:00)
Language:

USA 215 - Orbit

View from above orbital plane
View from above orbital plane
View from above satellite
View from above satellite

Ground track
Ground track

The orbit data is extracted from the following two-line orbital elements,

1 37162U 10046A   21014.20685576 0.00000000  00000-0  00000-0 0    00
2 37162 123.0102 271.5550 0008111  35.3934 324.5164 13.41421634    07
Epoch (UTC): 14 January 2021 04:57:52
Eccentricity: 0.0008111
inclination: 123.0102°
perigee height: 1098 km
apogee height: 1110 km
right ascension of ascending node: 271.5550°
argument of perigee: 35.3934°
revolutions per day: 13.41421634
mean anomaly at epoch: 324.5164°
orbit number at epoch: 0

The dashed part of the orbit path shows where the satellite is in the earth's shadow,  

DLR